Location: Newark
(6.9000°N, 10.0000°E)
Time: 01:28:53
(UTC+00:00)

Hubble Space Telescope - Visible Passes

Search period start: 22 October 2019 00:00
Search period end: 01 November 2019 00:00
Orbit: 536 x 540 km, 28.5° (Epoch: 20 October)

Date Brightness Start Highest point End Pass type
(mag) Time Alt. Az. Time Alt. Az. Time Alt. Az.
22 Oct 1.9 04:12:32 10° SW 04:16:25 40° SSE 04:20:17 10° E visible
23 Oct 1.2 04:02:50 17° SW 04:05:51 59° SSE 04:09:53 10° ENE visible
24 Oct 0.7 03:53:41 36° WSW 03:55:16 86° SSE 03:59:23 10° ENE visible
25 Oct 0.6 03:44:28 65° NW 03:44:42 67° NNW 03:48:47 10° NE visible
26 Oct 1.7 03:35:10 37° NNE 03:35:10 37° NNE 03:38:06 10° NE visible
27 Oct 2.8 03:25:47 20° NNE 03:25:47 20° NNE 03:27:21 10° NE visible
28 Oct 3.5 03:16:17 11° NNE 03:16:17 11° NNE 03:16:30 10° NNE visible
